Location: Recife
(8.0585°S, 34.8848°W)
Time: 10:43:12
(UTC-03:00)

SR - Pass Details

Date: 21 April 2026
Orbit: 568 x 852 km, 66.7° (Epoch: 12 May)

Event Time Altitude Azimuth Distance (km) Brightness Sun altitude
Rises 11:31:00 0° 233° (SW) 2,768 ? 69.7°
Reaches altitude 10° 11:34:15 10° 260° (W) 1,875 ? 69.6°
Maximum altitude 11:36:16 13° 289° (WNW) 1,681 ? 69.4°
Drops below altitude 10° 11:38:18 10° 318° (NW) 1,899 ? 69.3°
Sets 11:41:39 0° 346° (NNW) 2,836 ? 69.1°
